Regional Weather Roundup
Issued by NWS

Home | Current Version | Previous Version | Graphics & Text | Print | Product List | Glossary On
Versions: 1 2 3 4 5 6 7 8 9 10 11 12 13 14 15 16 17 18 19 20 21 22 23 24 25 26 27 28 29 30 31 32 33 34 35 36 37 38 39 40 41 42 43 44 45 46 47 48 49 50
000
ASUS43 KTOP 271659
RWRKS

WEATHER ROUNDUP FOR KANSAS
NATIONAL WEATHER SERVICE GOODLAND KS
1100 AM CST MON FEB 27 2017

NOTE:  "FAIR" INDICATES FEW OR NO CLOUDS BELOW 12,000 FEET WITH NO
SIGNIFICANT WEATHER AND/OR OBSTRUCTIONS TO VISIBILITY.

KSZ001>006-013>018-027>032-041>047-271800-
NORTHWEST KANSAS

CITY           SKY/WX    TMP DP  RH WIND       PRES   REMARKS
GOODLAND       CLOUDY    38  24  57 SW7       29.74F
HAYS           CLOUDY    51  35  54 S20       29.83F
HILL CITY      CLOUDY    46  32  58 S13       29.82F
RUSSELL        CLOUDY    50  38  63 S21       29.84F
$$

KSZ061>065-074>080-084>089-271800-
SOUTHWEST KANSAS

CITY           SKY/WX    TMP DP  RH WIND       PRES   REMARKS
DODGE CITY     SUNNY     50  30  46 SW17      29.83F
ELKHART          N/A    N/A N/A N/A MISG        N/A
GARDEN CITY    SUNNY     48  21  34 S13       29.79F
GREAT BEND     CLOUDY    47  39  74 S20G25    29.85F
LIBERAL        SUNNY     50  27  40 SW16G22   29.84S
$$

KSZ066>073-081>083-090>101-271800-
SOUTHEAST KANSAS

CITY           SKY/WX    TMP DP  RH WIND       PRES   REMARKS
CHANUTE        PTSUNNY   57  38  48 SE14G20   30.00F
COFFEYVILLE    CLOUDY    58  41  53 SE13      29.98F
HUTCHINSON     CLOUDY    47  38  71 SE17      29.91S
MEDICINE LODGE   N/A     40  38  93 SE8       29.89F
NEWTON         CLOUDY    48  38  68 SE18      29.92F
PARSONS        CLOUDY    57  39  51 SE8       29.99F
WICHITA INTL   CLOUDY    48  40  73 SE16      29.91F
WICHITA JABRA  CLOUDY    48  40  73 SE13G22   29.92F
WINFIELD       CLOUDY    51  40  65 SE12      29.94S
$$

KSZ007>012-019>026-033>040-048>060-102>105-271800-
NORTHEAST KANSAS

CITY           SKY/WX    TMP DP  RH WIND       PRES   REMARKS
CONCORDIA      SUNNY     50  28  42 SE20G29   29.91F
EMPORIA        PTSUNNY   51  36  56 SE16      29.97F
LAWRENCE       SUNNY     52  33  48 SE16      30.01F
MANHATTAN      PTSUNNY   56  32  40 S15G22    29.95F
OLATHE IND     SUNNY     52  34  50 SE16G25   30.02F
OLATHE EXE     SUNNY     51  36  56 SE13      30.02F
SALINA         CLOUDY    53  34  48 SE15      29.91F
TOPEKA BILLARD SUNNY     52  34  50 SE15      29.99F
TOPEKA FORBES  MOSUNNY   53  32  44 SE16G24   29.97F
$$



USA.gov is the U.S. government's official web portal to all federal, state and local government web resources and services.